Location: Ellingshausen
(50.5460°N, 10.4723°E)
Time: 00:47:58
(UTC+00:00)

Okean 1-7 - Pass Details

Date: 18 January 2026
Orbit: 566 x 588 km, 82.5° (Epoch: 17 February)

Event Time Altitude Azimuth Distance (km) Brightness Sun altitude
Exits shadow 04:51:56 - 357° (N) 2,176 5.8 -21.4°
Reaches altitude 10° 04:52:40 10° 360° (N) 1,886 5.5 -21.3°
Maximum altitude 04:56:41 48° 75° (ENE) 759 3.9 -20.7°
Drops below altitude 10° 05:00:43 10° 151° (SSE) 1,882 6.0 -20.0°
Sets 05:02:57 0° 157° (SSE) 2,780 6.9 -19.7°
